Retour au catalogue

STARLINK-30975

ActifCommunicationsVLEO
NORAD 58446·PAYLOAD·🇺🇸 United States

Lancé Nov 28, 2023 depuis Cape Canaveral Space Force Station

Loading…

Prochains Passages (prochaines 24 heures)

TLE

FraisSource: CelesTrak SupGP

Époque: Sep 15, 2026, 02:43 UTC

1 58446C 23183K   26258.11368056 -.00023482  00000+0 -85029-3 0  2582
2 58446  43.0040  51.6388 0001802 272.8752 194.0356 15.27598074    12

Suivez STARLINK-30975 en temps réel avec AllMySat

Download on the App Store